This demonstration page uses our WeatherBlox Daily Observations layout. Learn more.

Left ArrowRight Arrow

31.31129, -92.44514

Hourly Observations for August 15, 2022

Temp ( °F °C ) Dew Point ( °F °C ) Humidity (%) Winds ( mph kmh ) Pressure ( in mb ) Visibility ( mi km ) Precip ( " mm )
12:53 am 00:53 Clear 80 26.7 72 22.2 76 76 SW 5 7 29.94 1014 10 16 0.00 0.00
1:53 am 01:53 Clear 80 26.7 72 22.2 76 76 Calm 29.93 1014 10 16 0.00 0.00
2:53 am 02:53 Clear 78 25.6 72 22.2 82 82 Calm 29.93 1014 9 14 0.00 0.00
3:53 am 03:53 Clear 78 25.6 72 22.2 82 82 Calm 29.93 1014 10 16 0.00 0.00
4:53 am 04:53 Clear 77 25 72 22.2 84 84 Calm 29.94 1014 9 14 0.00 0.00
5:53 am 05:53 Clear 75 23.9 72 22.2 90 90 SW 5 7 29.94 1014 8 13 0.00 0.00
6:53 am 06:53 Hazy 77 25 72 22.2 84 84 Calm 29.96 1015 6 10 0.00 0.00
7:53 am 07:53 Sunny 79 26.1 74 23.3 85 85 WNW 3 6 29.98 1015 7 11 0.00 0.00
8:53 am 08:53 Sunny 83 28.3 75 23.9 77 77 W 7 11 29.99 1016 8 13 0.00 0.00
9:53 am 09:53 Hazy 88 31.1 73 22.8 61 61 W 6 9 29.98 1015 6 10 0.00 0.00
10:53 am 10:53 Sunny 90 32.2 73 22.8 58 58 Calm 29.98 1015 7 11 0.00 0.00
11:53 am 11:53 Sunny 93 33.9 72 22.2 51 51 W 5 7 29.97 1015 8 13 0.00 0.00
12:53 pm 12:53 Mostly Cloudy 94 34.4 70 21.1 46 46 Calm 29.96 1015 8 13 0.00 0.00
1:53 pm 13:53 Partly Cloudy 95 35 71 21.7 46 46 Calm 29.94 1014 8 13 0.00 0.00
2:53 pm 14:53 Mostly Cloudy 97 36.1 70 21.1 42 42 WSW 5 7 29.92 1013 8 13 0.00 0.00
3:53 pm 15:53 Mostly Cloudy 98 36.7 70 21.1 41 41 Calm 29.90 1013 10 16 0.00 0.00
4:53 pm 16:53 Sunny 97 36.1 69 20.6 41 41 S 7 11 29.88 1012 10 16 0.00 0.00
5:53 pm 17:53 Sunny 97 36.1 69 20.6 41 41 SSE 9 15 29.87 1012 10 16 0.00 0.00
6:53 pm 18:53 Sunny 95 35 69 20.6 43 43 S 7 11 29.87 1011 10 16 0.00 0.00
7:53 pm 19:53 Sunny 89 31.7 71 21.7 56 56 SSE 5 7 29.88 1012 10 16 0.00 0.00
8:53 pm 20:53 Clear 86 30 72 22.2 63 63 S 3 6 29.88 1012 9 14 0.00 0.00
9:53 pm 21:53 Clear 83 28.3 73 22.8 72 72 SSE 5 7 29.90 1013 10 16 0.00 0.00
10:53 pm 22:53 Clear 82 27.8 73 22.8 74 74 S 3 6 29.91 1013 10 16 0.00 0.00
11:53 pm 23:53 Clear 81 27.2 73 22.8 77 77 SSE 5 7 29.91 1013 10 16 0.00 0.00

Powered by AerisWeather